Other Public Products
Issued by NWS Grand Forks, ND

Home | Current Version | Previous Version | Text Only | Print | Product List | Glossary Off
Versions: 1 2 3 4 5 6 7 8 9 10 11 12 13 14 15 16 17 18 19 20 21 22 23 24 25 26 27 28 29 30 31 32 33 34 35 36 37 38 39 40 41 42 43 44 45 46 47 48 49 50

000
FPUS83 KFGF 170831
OPUFGF
PRAIRIE TO PINES WEATHER ROUNDUP
NATIONAL WEATHER SERVICE EASTERN NORTH DAKOTA/GRAND FORKS ND
200 AM CST SAT FEB 17 2018

 **SATELLITE DATA USED TO AUGMENT SKY COVER AT AUTOMATED STATIONS**
 *****  WEATHER ACROSS EASTERN NORTH DAKOTA  *****

CITY           SKY/WX    TMP DP  RH WIND       PRES   REMARKS
GRAND FORKS    FAIR      20  14  77 W8        29.77R WCI  10
GRND FORKS AFB FAIR      20  13  74 NW8       29.76S WCI  10
GRND FORKS NWS   N/A     20  16  83 W12       29.74S WCI   9
BUXTON           N/A     22  21  93 NW12        N/A  WCI  11
DEVILS LAKE    CLOUDY    14  11  87 W9        29.75S WCI   2
FARGO          FAIR      23  16  74 SW10      29.80R WCI  12
WAHPETON ARPT  FAIR      25  18  74 SW6       29.83R WCI  18
$$

 *****  WEATHER ACROSS CENTRAL AND WESTERN NORTH DAKOTA  *****

CITY           SKY/WX    TMP DP  RH WIND       PRES   REMARKS
JAMESTOWN      FAIR      20  15  81 W6        29.77S WCI  12
BISMARCK       FAIR      16  14  92 W7        29.81F WCI   6
MINOT          FAIR      19  13  77 W13       29.77R WCI   6
MINOT AFB      FAIR      14  10  85 W10         N/A  WCI   1
GARRISON         N/A     15  11  83 NW10      29.77S WCI   2
WILLISTON      CLOUDY    18  12  77 NW7       29.84R WCI   9
DICKINSON      FAIR      14  12  92 W12       29.74F WCI   0
HETTINGER      FAIR      16  13  88 NW6       29.78F WCI   7
$$

 *****  OTHER OBSERVATIONS NORTHEAST NORTH DAKOTA  *****

CITY           SKY/WX    TMP DP  RH WIND       PRES   REMARKS
WALHALLA       FAIR      14  10  85 W8        29.74R WCI   3
LANGDON        PTSUNNY    9   9 100 SW10      29.70S WCI  -6
CAVALIER         N/A     14   9  79 W13       29.74R WCI   0
GRAFTON        FAIR      16  10  79 W12       29.77S WCI   3
CANDO          FAIR       5   5 100 W8        29.76R WCI  -8
FORT TOTTEN      N/A     16  11  82 W2        29.95S
ROLLA          CLOUDY    12   9  85 W9        29.71R WCI   0
RUGBY          FAIR      12  10  92 W13       29.74S WCI  -3
 ***** THE ABOVE OBSERVATIONS ARE NON NWS ARE NOT QUALITY
        CONTROLLED AND MAY MIS-REPORT RAIN FOR SNOW...
$$

 *****  OTHER OBSERVATIONS SOUTHEAST NORTH DAKOTA *****

CITY           SKY/WX    TMP DP  RH WIND       PRES   REMARKS
COOPERSTOWN    FAIR      16  14  93 W13       29.76S WCI   2
VALLEY CITY    FAIR      19  18  93 W13       29.79S WCI   7
OAKES            N/A     19  14  79 SW5       29.82R WCI  13
GWINNER          N/A     19  14  79 SW10      29.81R WCI   8
SHEYENNE NWR     N/A     20  15  81 W5        29.95S WCI  13
BUFFALO          N/A     21  15  79 NE12        N/A  WCI   9
WYNDMERE       NOT AVBL
 ***** THE ABOVE OBSERVATIONS ARE NON NWS ARE NOT QUALITY
       CONTROLLED AND MAY MIS-REPORT RAIN FOR SNOW...
$$

  *****  WEATHER ACROSS NORTHERN MINNESOTA  *****

CITY           SKY/WX    TMP DP  RH WIND       PRES   REMARKS
FLAG ISLAND    FAIR      14   9  79 W12       29.65R WCI   0
WARROAD        FAIR      16  10  79 W10       29.68R WCI   3
ROSEAU         FAIR      18  12  79 W8        29.69R WCI   7
HALLOCK        FAIR      10   7  85 W9        29.73R WCI  -2
THF RVR FALLS  FAIR      19  14  81 W13       29.73S WCI   6
HALSTAD        NOT AVBL
FOSSTON        FAIR      16  12  86 SW10      29.75R WCI   3
BAUDETTE       FAIR      19  12  74 W8        29.65S WCI   9
WASKISH        FAIR      19  16  86 SW13      29.70S WCI   7
CROOKSTON      FAIR      18  12  79 NW12      29.78R WCI   5
$$
  *****  WEATHER ACROSS CENTRAL AND WEST MINNESOTA  *****

CITY           SKY/WX    TMP DP  RH WIND       PRES   REMARKS
BEMIDJI        FAIR      19  16  86 SW8       29.73S WCI   9
PARK RAPIDS    FAIR      18  13  80 SW8       29.76F WCI   8
WADENA         CLOUDY    19  16  86 SW9       29.79S WCI   9
DETROIT LAKES  FAIR      21  19  93 SW9       29.79R WCI  11
MOORHEAD       FAIR      21  16  79 SW8       29.81S WCI  12
FERGUS FALLS   FAIR      19  16  86 S7        29.82S WCI  10
ELBOW LAKE     CLOUDY    19  13  77 S7        29.83S WCI  10
MORRIS MN      FAIR      25  16  68 SW5       29.83S WCI  19
STAPLES        CLOUDY    18  12  79 SW6       29.80F WCI   9
WHEATON        MOCLDY    27  18  69 SW10      29.85S WCI  17
$$
  *****  WEATHER ELSEWHERE ACROSS MINNESOTA  *****

CITY           SKY/WX    TMP DP  RH WIND       PRES   REMARKS
DULUTH         CLOUDY    14   6  70 SW17G26   29.79F WCI  -3
INTRNTL FALLS  CLOUDY    21  10  62 SW10      29.66F WCI  10
ELY            FAIR      14   5  67 SW14      29.72F WCI  -1
CLOQUET        CLOUDY    14   7  73 SW10G16   29.81F WCI   1
BRAINERD       MOCLDY    16   8  71 S10       29.82F WCI   4
HIBBING        CLOUDY    13   5  70 SW8       29.76F WCI   2
ALEXANDRIA     CLOUDY    20  13  74 SW8       29.82F WCI  10
SAINT CLOUD    CLOUDY    18  12  77 MISG      29.87F
MINNEAPOLIS    CLOUDY    23  12  62 SW12      29.94F WCI  12
$$

  *****  WEATHER ACROSS SOUTH DAKOTA  *****

CITY           SKY/WX    TMP DP  RH WIND       PRES   REMARKS
SIOUX FALLS    CLOUDY    27  17  66 SW10      29.91F WCI  17
BROOKINGS      CLOUDY    24  19  81 S12       29.86F WCI  13
WATERTOWN      FAIR      23  19  85 SW7       29.82F WCI  15
HURON          CLOUDY    26  21  81 CALM      29.85F
SISSETON         N/A     27  18  69 SW16      29.82F WCI  15
ABERDEEN       CLOUDY    22  17  81 S5        29.84F WCI  16
MITCHELL       CLOUDY    30  26  85 S13       29.87F WCI  20
PIERRE         FAIR      21  15  78 NW15      29.84S WCI   8
MOBRIDGE       FAIR      16  12  84 SE5       29.79F WCI   9
RAPID CITY     FAIR      23  14  68 W7        29.82S WCI  15
$$

  *****  SOME WEATHER IN NEARBY STATES *****

CITY           SKY/WX    TMP DP  RH WIND       PRES   REMARKS
GLASGOW MT     FAIR      11   6  81 N6        29.89R WCI   1
GREAT FALLS MT LGT SNOW  18  15  88 N10       29.99R VSB 3/4 WCI   6
CHEYENNE WY    FAIR      29  13  51 W32G45    29.83R WCI  13
SCOTTSBLUFF NE FAIR      34  17  50 W16       29.86R WCI  24
OMAHA NE       CLOUDY    29  14  53 S13       30.01F WCI  19
DES MOINES IA  CLOUDY    22  10  60 SE8       30.08F WCI  12
DAVENPORT IA   FAIR      16   8  71 SE7       30.19F WCI   6
CHICAGO IL     FAIR      18   9  68 SW5       30.22F WCI  11
EAU CLAIRE WI  FAIR      14   6  70 S10       29.98F WCI   1
LA CROSSE WI   FAIR      17   7  64 S9        30.09F WCI   6
$$

  *****  SOME NATIONAL WEATHER *****

CITY           SKY/WX    TMP DP  RH WIND       PRES   REMARKS
LA GUARDIA NY  FAIR      33  16  49 NW12      30.26R WCI  24
RALEIGH NC     MOCLDY    50  37  61 NE5       30.22R
ATLANTA GA     MOCLDY    52  48  86 NW3       30.14F
NEW ORLEANS LA FAIR      64  64 100 CALM      30.11F FOG
OKLAHOMA CITY  LGT RAIN  37  35  92 S9        30.10R
ALBUQUERQUE NM CLOUDY    40  37  89 S3        30.15R
SALT LAKE CITY MOCLDY    34  17  50 SE7       30.18R
LOS ANGELES CA FAIR      56  50  80 E6        30.11F
BOISE ID       MOCLDY    34  26  72 SE8       30.18S
SEATTLE WA     CLOUDY    46  42  86 S13       30.10F
$$

*** WEATHER ACROSS MANITOBA...SASKATCHEWAN AND ONTARIO ***
                ***ONTARIO***

CITY           SKY/WX    TMP DP  RH WIND       PRES   REMARKS
GERALDTON      MOCLDY     7  -4  61 S7        29.73F WCI  -5
THUNDER BAY    FLURRIES  14   9  79 VRB2      29.78F
SIOUX LOOKOUT  FLURRIES  16   5  62 SW9       29.57F WCI   4
TORONTO        CLEAR     19  12  73 S3        30.26R
BIG TROUT LK   CLEAR      0  -6  78 SW10      29.49F WCI -17
PICKLE LAKE    NOT AVBL
DRYDEN         FLURRIES  18   9  68 SW13G20   29.56F WCI   4
KENORA         CLOUDY    12   7  79 W13       29.59S WCI  -3
$$
                *** MANITOBA***

CITY           SKY/WX    TMP DP  RH WIND       PRES   REMARKS
BRANDON        MOCLDY     7   3  85 NW10      29.70S WCI  -8
DAUPHIN        CLEAR     10   5  79 W15       29.71S WCI  -6
ISLAND LAKE    PTCLDY    -4  -9  77 W8        29.54R WCI -19
PILOT MOUND      N/A     12   9  85 W8          N/A  WCI   1
THE PAS        CLEAR      0  -9  65 W10       29.65S WCI -17
THOMPSON       FLURRIES  -4 -15  59 NW16      29.55R WCI -25
WINNIPEG       PTCLDY     5   0  78 W9        29.70R WCI  -9
LYNN LAKE      CLOUDY   -11 -17  77 W12G17    29.54F WCI -31
CHURCHILL      CRYSTALS -18 -26  69 W10       29.48R WCI -39
GILLAM         CLEAR    -15 -22  70 W8        29.52R WCI -32
$$
                ***SASKATCHEWAN***

CITY           SKY/WX    TMP DP  RH WIND       PRES   REMARKS
ESTEVAN        MOCLDY    10   5  79 W15       29.79R WCI  -6
KINDERSLEY     MOCLDY     1  -2  85 W14       29.90S WCI -17
LLOYDMINSTER   CLOUDY     5  -2  72 W14G20    29.86R WCI -12
PRINCE ALBERT  CLEAR     -2  -6  84 W10       29.80R WCI -19
REGINA         MOCLDY    10   5  79 NW13      29.81R WCI  -5
YORKTON        PTCLDY     3  -2  78 W13       29.74R WC



USA.gov is the U.S. government's official web portal to all federal, state and local government web resources and services.